Hourly Data Report for October 03, 2015

All times are specified in Local Standard Time (LST). Add 1 hour to adjust for Daylight Saving Time where and when it is observed.

HALL BEACH A
NUNAVUT

68°46'33.000" N
81°14'33.000" W
9.10 m
2402354
71293
YUX

Download Data

Hourly Data (October 2015)
Hourly Data Report for October 3, 2015
Temp Definition
°C
Dew Point Temp Definition
°C
Rel Hum Definition
%
Wind Dir Definition
10's deg

Wind Spd Definition
km/h
Visibility Definition
km
Stn Press Definition
kPa
Hmdx Definition


Wind Chill Definition


Weather Definition


TIME
00:00 Legend Double Dagger 0.5 -1.1 89 26 15 16.1 102.76     LegendNANA
01:00 Legend Double Dagger 0.7 -1.4 86 29 11 16.1 102.77     LegendNANA
02:00 Legend Double Dagger 0.4 -1.2 89 LegendMM 4 16.1 102.76     LegendNANA
03:00 Legend Double Dagger 0.0 -1.1 92 21 9 16.1 102.72   -3 LegendNANA
04:00 Legend Double Dagger 0.0 -1.0 93 26 15 16.1 102.66   -4 LegendNANA
05:00 Legend Double Dagger -0.2 -0.9 95 25 8 16.1 102.64   -3 LegendNANA
06:00 Legend Double Dagger -0.4 -1.0 96 26 8 16.1 102.60   -3 LegendNANA
07:00 Legend Double Dagger -0.5 -1.1 96 26 8 16.1 102.57   -3 LegendNANA
08:00 Legend Double Dagger -0.4 -1.0 96 27 5 16.1 102.56   -2 LegendNANA
09:00 Legend Double Dagger -0.2 -0.9 95 31 5 16.1 102.51   -2 LegendNANA
10:00 Legend Double Dagger 0.3 -0.7 93 28 4 16.1 102.47     LegendNANA
11:00 Legend Double Dagger 0.8 -0.4 92 34 5 16.1 102.42     LegendNANA
12:00 Legend Double Dagger 0.9 -0.2 92 35 9 9.7 102.39     Rain,Fog
13:00 Legend Double Dagger 0.6 -0.1 95 35 11 4.0 102.36     Snow
14:00 Legend Double Dagger 0.7 -0.5 92 1 13 16.1 102.33     LegendNANA
15:00 Legend Double Dagger 0.7 -0.8 90 1 11 16.1 102.29     LegendNANA
16:00 Legend Double Dagger 0.8 -2.3 80 36 21 16.1 102.28     LegendNANA
17:00 Legend Double Dagger 0.2 -2.7 81 34 15 16.1 102.28     LegendNANA
18:00 Legend Double Dagger 0.3 -3.3 77 1 17 16.1 102.27     LegendNANA
19:00 Legend Double Dagger -0.2 -1.1 94 34 17 3.2 102.30   -5 Snow
20:00 Legend Double Dagger -0.3 -1.9 89 34 24 16.1 102.29   -6 LegendNANA
21:00 Legend Double Dagger -0.7 -2.4 89 35 24 14.5 102.31   -7 LegendNANA
22:00 Legend Double Dagger -1.3 -3.0 88 33 17 16.1 102.31   -6 LegendNANA
23:00 Legend Double Dagger -2.3 -3.4 92 32 17 16.1 102.32   -8 LegendNANA

Notes on Data Quality.

Legend

  • E = Estimated
  • M = Missing
  • NA = Not Available
  • ‡ = Partner data that is not subject to review by the National Climate Archives
Date modified: